Regional Weather Roundup
Issued by NWS Goodland, KS

Home | Current Version | Previous Version | Graphics & Text | Print | Product List | Glossary On
Versions: 1 2 3 4 5 6 7 8 9 10 11 12 13 14 15 16 17 18 19 20 21 22 23 24 25 26 27 28 29 30 31 32 33 34 35 36 37 38 39 40 41 42 43 44 45 46 47 48 49 50
000
ASUS43 KGLD 240959
RWRGLD

GOODLAND FORECAST AREA HOURLY WEATHER ROUNDUP
NATIONAL WEATHER SERVICE GOODLAND KS
300 AM MST FRI NOV 24 2017

...OFFICIAL OBSERVATIONS...

CITY           SKY/WX    TMP DP  RH WIND       PRES   REMARKS
GOODLAND KS    CLOUDY    49  34  56 W12       29.77F
HILL CITY KS   CLEAR     47  38  71 W9        29.73F
IMPERIAL NEB   PTCLDY    49  29  46 W10       29.74F
MCCOOK NEB     PTCLDY    45  36  70 W9        29.71F
AKRON CO       PTCLDY    50  25  37 W13       29.82S
BURLINGTON CO  CLOUDY    43  33  68 W12       29.81F
LIMON CO       CLOUDY    31  25  78 N7        29.88F
$$

...UNOFFICIAL OBSERVATIONS...

CITY           SKY/WX    TMP DP  RH WIND       PRES   REMARKS
LENORA KS        N/A     49  32  52 W6          N/A
NORTON KS      CLEAR     43  32  65 W6        29.70
SHARON SPRINGS   N/A     42  35  76 SW9         N/A
KIT CARSON CO    N/A     38  31  74 CALM        N/A
YUMA CO        FAIR      41  28  60 W9        29.79S
$$




USA.gov is the U.S. government's official web portal to all federal, state and local government web resources and services.